Wind_Speed
68 71 72 76 77 73 68 67 63 59 57 49 41 36 31 22 20 16 10 9 13 22 36 52 61 71 71 75 79 79 76 74 62 60 70 70 75 81 76 78 78 76 76 74
64 69 74 75 79 80 76 70 69 67 59 44 43 42 34 22 22 24 20 14 2 12 28 40 58 67 70 73 79 78 64 64 56 65 57 71 75 76 76 76 76 80 80 80
64 65 72 76 78 80 80 75 70 71 63 56 36 42 33 27 19 27 21 24 19 16 23 39 51 57 68 73 73 71 56 45 54 64 62 72 68 76 78 77 74 75 77 81
63 64 66 73 78 78 82 80 74 70 70 61 50 35 41 28 15 17 14 11 15 11 17 40 56 58 65 69 74 71 63 54 48 53 55 64 65 69 75 80 81 73 73 73
66 63 63 68 74 76 78 81 80 73 69 67 56 38 26 25 26 16 8 10 1 6 19 45 61 62 71 78 73 78 75 63 59 54 53 56 59 67 73 77 79 80 76 74
64 64 62 63 68 72 74 78 78 76 70 62 58 49 31 27 23 33 12 9 24 13 27 48 50 57 66 74 76 90 82 67 60 60 66 60 65 62 65 73 76 77 79 79
60 63 62 56 62 66 69 73 74 74 70 64 59 55 42 34 25 23 29 28 22 20 35 53 57 58 55 58 67 87 83 80 67 55 62 51 63 70 73 72 71 71 74 78
64 63 59 57 57 63 63 67 70 70 70 65 57 52 53 44 36 30 17 19 25 28 25 51 59 67 61 62 64 77 76 76 70 67 61 61 63 69 76 77 79 76 77 82
63 63 60 52 56 61 58 62 65 66 68 65 62 57 48 47 41 40 33 22 14 21 8 53 66 69 70 64 71 83 80 77 77 76 79 66 68 71 79 78 82 82 81 80
69 71 62 55 53 55 57 58 62 62 62 65 61 60 53 49 43 41 39 32 21 20 18 24 59 65 77 76 73 82 73 76 78 77 82 79 81 71 75 77 82 82 81 81
69 70 68 57 50 54 53 56 57 59 59 61 62 60 56 49 44 37 37 36 32 24 18 22 47 64 75 81 81 80 83 82 83 82 82 81 85 76 78 78 80 80 79 84
74 73 66 63 52 49 52 56 53 56 56 58 58 59 57 52 47 41 35 28 26 28 24 21 29 67 79 86 91 90 91 92 94 89 85 81 84 84 86 83 89 90 92 91
79 76 73 62 51 55 53 52 55 53 56 56 54 55 58 54 53 45 39 35 29 24 22 28 30 46 78 87 95 99 101 95 98 94 95 90 88 89 91 92 96 100 99 103
81 86 76 64 51 57 50 49 54 55 57 59 50 53 55 54 54 53 50 38 35 33 23 21 32 38 55 83 95 103 103 108 105 104 102 102 98 99 98 98 100 100 104 104
87 91 76 67 54 50 51 54 53 55 60 58 51 52 53 55 54 58 56 50 42 38 36 28 22 38 50 71 87 93 106 114 119 115 111 106 103 108 107 104 107 107 108 109
90 95 79 72 57 56 56 59 60 54 56 58 54 54 53 53 55 58 60 57 54 50 44 39 38 35 54 63 77 96 103 113 118 118 118 119 117 114 115 115 116 119 116 114
91 93 94 65 63 59 60 63 63 65 56 59 58 58 56 56 61 61 62 63 59 60 61 56 51 47 46 52 71 84 92 106 114 117 118 121 124 124 126 125 124 125 126 126
95 108 101 70 64 60 61 60 64 63 61 61 61 60 61 63 65 65 69 66 65 67 67 65 64 60 57 57 58 66 85 102 106 115 121 128 133 135 136 138 138 138 136 136
107 107 98 72 65 65 62 64 64 64 61 61 60 65 67 69 69 69 73 70 72 73 73 74 73 71 71 71 68 68 72 76 89 110 126 133 138 141 145 146 147 148 148 148
104 98 90 75 64 64 64 66 66 64 61 65 67 71 74 73 75 75 75 76 78 78 79 81 80 79 79 81 83 85 84 85 85 89 101 109 126 144 149 148 151 154 155 157
99 93 84 74 67 62 66 66 66 66 65 70 71 72 73 75 77 79 80 84 83 83 86 85 87 89 91 93 95 94 94 94 93 93 93 96 107 116 126 140 151 160 163 163
92 87 78 70 66 64 67 68 69 67 71 73 73 75 77 77 80 83 85 87 88 90 93 94 97 100 101 100 99 98 98 99 99 99 98 98 99 104 121 128 134 144 149 154
87 78 67 62 63 70 70 68 69 72 76 76 77 80 80 84 87 90 92 94 95 97 100 103 105 106 104 104 103 102 100 99 98 98 98 99 99 101 104 108 115 128 141 150
76 67 62 63 69 69 70 73 76 80 80 84 84 86 88 90 93 95 98 100 101 105 107 108 109 109 109 108 105 100 96 95 96 98 99 100 101 103 105 106 108 110 115 121
70 68 64 68 69 72 75 80 82 86 88 89 88 91 94 96 99 101 104 106 106 108 110 112 112 113 111 105 102 99 95 94 93 92 92 93 94 97 99 101 102 105 109 112
73 70 70 74 78 78 82 86 88 89 91 93 95 97 97 101 104 107 108 108 111 113 113 113 114 109 103 102 101 95 90 86 84 83 83 82 83 85 87 90 92 95 97 101
Wind_Direction
10 12 14 15 16 15 14 13 9 6 8 4 7 4 352 358 359 350 344 296 250 219 210 208 199 200 199 201 206 208 204 201 213 226 225 228 229 230 228 236 238 240 244 246
9 6 9 12 12 13 14 13 10 9 15 12 14 14 4 12 31 35 33 52 103 184 196 192 194 196 195 198 201 202 203 198 209 225 229 227 231 230 233 233 236 240 243 246
8 4 5 7 9 8 11 14 12 10 18 21 17 4 9 35 44 46 43 54 79 121 173 174 183 192 192 195 199 193 182 196 213 222 234 237 236 232 235 237 238 239 241 245
7 7 1 4 5 5 7 9 13 12 15 26 25 8 14 21 59 61 34 35 31 7 161 172 172 184 191 195 193 185 183 189 203 223 236 233 232 237 236 239 239 239 244 245
3 5 358 357 2 3 3 6 9 13 14 20 29 22 16 11 6 32 48 339 249 228 186 176 179 183 190 191 190 180 183 191 202 212 227 230 230 234 237 238 241 242 242 244
354 2 357 353 356 -0 0 2 4 9 13 16 25 29 27 349 355 349 311 324 348 214 189 174 184 187 187 192 192 188 194 201 206 218 223 235 231 232 237 239 240 242 246 247
353 354 355 353 348 354 358 359 0 4 9 12 16 22 22 20 3 331 319 306 325 344 189 172 180 177 181 184 196 196 204 208 216 213 217 230 228 228 233 237 240 241 243 246
354 349 352 352 349 346 353 356 356 357 2 8 12 11 17 11 10 9 325 266 283 307 208 181 185 186 183 191 198 196 200 206 213 215 222 225 231 234 234 234 237 239 243 245
352 350 348 341 347 348 344 351 352 352 353 360 5 8 5 12 5 3 5 9 330 316 296 197 191 193 189 193 197 196 204 209 208 212 225 228 233 237 238 235 237 238 241 242
350 350 350 340 335 343 341 342 347 348 347 350 355 360 1 2 8 5 359 355 357 324 308 227 204 206 204 205 210 209 210 214 217 224 227 226 229 234 234 229 235 240 240 241
344 347 348 346 332 331 332 334 338 341 343 343 345 350 354 357 358 358 3 354 341 340 315 253 220 211 207 209 210 215 215 220 222 223 219 224 229 235 234 231 231 234 239 243
339 340 341 344 338 327 329 328 326 335 337 338 338 340 344 348 354 353 347 350 355 329 315 285 261 212 212 215 215 216 218 223 225 223 226 232 233 235 236 233 232 238 242 245
336 335 338 336 331 330 322 323 323 325 330 332 331 332 333 336 339 346 345 339 329 344 319 295 280 247 220 219 218 221 221 223 224 229 233 235 237 237 237 237 237 236 241 245
336 335 333 332 322 315 320 319 318 316 319 324 325 323 325 325 328 330 333 332 328 320 315 306 270 262 243 224 223 223 225 227 230 235 235 236 239 238 240 241 240 240 241 245
336 337 331 334 322 310 319 318 315 313 311 317 318 319 316 317 320 322 324 322 321 317 312 288 267 254 247 239 233 232 231 232 235 236 238 240 242 240 242 243 242 241 242 244
332 333 331 326 317 310 311 309 317 313 308 312 314 312 310 313 313 315 318 314 314 316 310 299 268 262 247 240 238 238 235 234 235 237 239 241 243 244 244 244 244 242 244 246
329 332 334 318 314 314 311 309 308 311 305 307 309 308 307 306 308 310 311 311 310 310 311 306 298 287 258 248 245 240 240 240 242 241 242 243 243 246 247 248 247 248 247 247
326 328 330 319 314 313 310 307 309 308 307 306 307 309 306 305 305 306 308 309 306 305 307 304 299 294 286 276 257 246 245 241 241 242 244 244 245 246 248 249 251 251 250 250
323 324 327 318 310 310 309 306 304 307 306 304 306 306 306 303 303 305 306 305 303 302 303 301 298 295 292 289 283 276 265 254 249 247 245 243 244 246 248 248 249 250 250 251
321 321 322 317 309 306 306 306 304 305 306 303 300 301 301 301 300 300 300 300 299 299 299 299 299 297 295 294 291 288 282 277 267 259 251 249 249 248 247 248 249 250 251 251
319 319 318 313 309 307 306 304 304 303 301 301 299 298 298 298 298 298 298 298 298 299 300 301 301 300 297 295 291 289 286 283 279 275 268 261 254 250 250 250 249 249 249 250
316 315 313 310 308 307 304 304 302 299 300 302 301 300 299 298 297 298 297 297 298 299 300 301 300 298 296 295 292 290 287 286 284 281 277 271 264 257 251 248 250 251 252 252
313 312 310 306 304 304 305 301 299 299 300 302 301 301 301 299 299 300 301 301 303 303 303 301 299 298 298 296 295 293 290 287 283 280 277 273 269 265 261 256 253 251 251 252
312 309 306 300 300 301 299 297 297 299 299 302 300 299 300 300 301 302 304 305 305 303 301 301 301 300 299 299 297 293 289 286 283 279 276 273 271 268 266 263 260 257 255 253
308 307 301 301 302 299 299 297 296 298 301 302 301 301 302 303 305 306 306 305 303 302 302 302 301 301 300 299 296 293 290 286 283 279 276 274 271 269 267 265 263 261 259 258
302 303 299 297 298 300 297 296 298 299 302 302 303 304 305 306 307 307 306 304 303 302 302 302 302 301 300 298 296 294 292 289 285 282 279 276 273 270 268 266 265 263 261 261
Height
10654 10643 10634 10622 10610 10597 10584 10571 10558 10545 10530 10513 10502 10496 10487 10478 10470 10465 10461 10457 10458 10463 10471 10483 10501 10516 10537 10556 10578 10601 10621 10640 10650 10663 10668 10673 10679 10686 10693 10699 10706 10712 10715 10722
10655 10644 10631 10621 10610 10598 10585 10573 10558 10543 10532 10517 10506 10500 10492 10483 10476 10470 10465 10462 10461 10465 10468 10483 10500 10517 10535 10552 10570 10592 10613 10631 10646 10653 10654 10659 10667 10676 10683 10688 10694 10701 10706 10709
10652 10643 10632 10622 10612 10601 10589 10577 10562 10547 10537 10521 10511 10505 10500 10489 10485 10481 10475 10473 10473 10472 10479 10482 10503 10524 10536 10551 10569 10589 10612 10628 10636 10641 10647 10653 10659 10665 10671 10677 10682 10687 10693 10696
10653 10643 10634 10624 10614 10602 10590 10578 10567 10553 10540 10527 10520 10513 10507 10498 10497 10492 10489 10485 10486 10489 10489 10496 10505 10524 10540 10554 10569 10588 10604 10617 10624 10633 10636 10640 10646 10652 10659 10665 10670 10674 10679 10684
10654 10644 10634 10625 10614 10604 10593 10583 10571 10560 10547 10535 10528 10524 10517 10511 10507 10504 10499 10496 10495 10493 10494 10497 10506 10519 10534 10546 10565 10578 10589 10598 10605 10617 10621 10626 10634 10641 10646 10650 10655 10660 10666 10669
10654 10645 10636 10625 10616 10606 10597 10587 10577 10566 10555 10549 10537 10533 10529 10523 10517 10514 10511 10506 10505 10503 10500 10507 10522 10527 10535 10543 10558 10567 10576 10583 10592 10601 10609 10612 10618 10626 10632 10638 10643 10647 10652 10655
10652 10642 10635 10627 10619 10609 10601 10591 10582 10574 10566 10554 10546 10538 10535 10532 10525 10522 10517 10513 10510 10512 10510 10514 10524 10534 10543 10549 10554 10562 10571 10579 10587 10593 10597 10601 10604 10608 10614 10621 10626 10631 10635 10637
10645 10639 10631 10624 10617 10609 10601 10593 10585 10577 10570 10563 10554 10546 10539 10531 10528 10524 10519 10516 10515 10519 10522 10523 10529 10537 10544 10549 10555 10562 10567 10576 10578 10584 10587 10589 10593 10595 10599 10601 10607 10612 10615 10616
10646 10638 10631 10624 10617 10609 10601 10592 10585 10578 10571 10566 10558 10551 10544 10536 10528 10522 10520 10519 10518 10520 10527 10527 10531 10534 10540 10543 10550 10552 10560 10566 10570 10574 10572 10577 10580 10582 10583 10587 10593 10595 10595 10596
10641 10633 10626 10620 10614 10607 10600 10592 10584 10578 10571 10564 10561 10555 10547 10539 10531 10524 10518 10516 10519 10520 10520 10528 10530 10533 10538 10542 10545 10551 10552 10555 10556 10558 10561 10563 10565 10567 10568 10572 10575 10577 10577 10579
10635 10627 10622 10614 10609 10603 10597 10590 10583 10575 10570 10564 10557 10554 10549 10544 10538 10531 10524 10518 10515 10516 10519 10522 10525 10530 10531 10534 10536 10538 10540 10541 10542 10543 10544 10546 10551 10554 10556 10557 10558 10557 10559 10559
10626 10621 10614 10608 10601 10596 10590 10584 10579 10573 10566 10561 10554 10550 10545 10541 10538 10534 10529 10525 10521 10516 10514 10516 10519 10520 10521 10522 10524 10525 10524 10527 10528 10529 10531 10530 10532 10534 10538 10539 10541 10541 10541 10540
10620 10612 10605 10597 10593 10586 10580 10576 10571 10566 10561 10556 10551 10544 10540 10536 10531 10530 10527 10523 10519 10515 10512 10510 10510 10513 10512 10511 10508 10511 10511 10514 10514 10512 10513 10515 10516 10516 10516 10518 10519 10520 10520 10521
10612 10602 10596 10589 10585 10578 10569 10564 10560 10557 10552 10547 10545 10540 10531 10528 10525 10520 10519 10517 10515 10512 10508 10504 10501 10499 10502 10502 10499 10498 10500 10498 10495 10494 10495 10494 10495 10496 10496 10498 10497 10498 10499 10499
10604 10594 10584 10577 10571 10569 10560 10551 10549 10545 10539 10537 10532 10529 10524 10517 10514 10509 10506 10503 10502 10500 10498 10495 10492 10488 10488 10490 10489 10486 10484 10479 10475 10475 10478 10478 10477 10474 10474 10476 10474 10473 10472 10474
10589 10584 10575 10565 10556 10555 10551 10541 10536 10530 10526 10524 10520 10514 10511 10506 10501 10497 10492 10488 10484 10482 10480 10478 10478 10474 10471 10467 10464 10463 10461 10459 10458 10459 10454 10452 10451 10448 10446 10445 10445 10446 10446 10446
10574 10567 10562 10555 10543 10540 10536 10527 10522 10516 10511 10507 10503 10498 10495 10490 10485 10480 10476 10470 10467 10462 10458 10455 10453 10450 10450 10448 10445 10442 10439 10438 10434 10432 10428 10424 10421 10419 10415 10411 10412 10413 10413 10413
10558 10551 10543 10539 10529 10527 10520 10512 10505 10499 10495 10490 10486 10480 10475 10472 10468 10462 10455 10451 10447 10442 10438 10433 10428 10425 10423 10420 10418 10414 10412 10409 10403 10400 10396 10393 10391 10386 10381 10377 10376 10376 10377 10377
10539 10529 10524 10518 10513 10509 10505 10497 10491 10486 10481 10472 10469 10462 10456 10451 10448 10443 10435 10431 10425 10419 10414 10409 10404 10399 10394 10389 10386 10382 10378 10375 10372 10365 10359 10352 10349 10347 10343 10340 10339 10337 10338 10338
10520 10511 10505 10498 10495 10493 10485 10478 10472 10468 10465 10455 10449 10443 10437 10431 10425 10424 10416 10409 10402 10395 10389 10382 10375 10369 10364 10358 10353 10347 10341 10336 10332 10326 10319 10312 10309 10310 10305 10299 10297 10295 10295 10296
10498 10491 10484 10476 10473 10473 10466 10460 10454 10449 10445 10438 10431 10424 10418 10411 10404 10398 10392 10385 10377 10370 10362 10354 10345 10338 10331 10324 10316 10307 10300 10293 10287 10281 10275 10269 10266 10261 10257 10253 10249 10249 10247 10248
10478 10470 10464 10456 10451 10450 10445 10440 10434 10429 10423 10416 10409 10402 10395 10387 10380 10371 10362 10355 10347 10339 10331 10323 10313 10302 10293 10284 10275 10266 10258 10250 10241 10233 10225 10218 10214 10210 10209 10207 10202 10200 10200 10202
10457 10449 10443 10438 10434 10428 10423 10418 10412 10407 10399 10392 10386 10378 10369 10361 10352 10343 10334 10325 10315 10305 10296 10286 10275 10263 10250 10242 10232 10223 10213 10204 10195 10186 10178 10171 10166 10161 10158 10159 10159 10158 10155 10156
10439 10430 10426 10418 10416 10408 10401 10396 10389 10382 10376 10370 10362 10353 10343 10334 10325 10315 10303 10292 10282 10271 10258 10245 10233 10221 10209 10198 10186 10177 10171 10162 10153 10144 10135 10127 10122 10115 10112 10112 10113 10114 10110 10109
10419 10413 10406 10400 10394 10387 10380 10373 10366 10359 10352 10344 10335 10325 10315 10305 10293 10283 10271 10260 10249 10237 10223 10210 10196 10182 10169 10156 10142 10132 10126 10117 10107 10099 10092 10085 10080 10075 10071 10069 10069 10070 10068 10070
10399 10393 10387 10380 10374 10368 10360 10351 10344 10336 10327 10317 10307 10297 10286 10276 10264 10252 10240 10227 10215 10201 10187 10173 10157 10144 10131 10118 10101 10092 10084 10075 10066 10058 10051 10047 10043 10038 10035 10033 10030 10030 10031 10029